Fullerton, CA

6:47 AM PDT on June 18, 2018 (GMT -0700)
Fullerton Municipal

Weather History for KFUL - October, 2017

Change the Weather History Date:

Monday, October 9, 2017

  Actual Average Record
Temperature  
Mean Temperature 75 °F 69 °F  
Max Temperature 89 °F 80 °F 105 °F (2015)
Min Temperature 61 °F 59 °F 52 °F (1998)
Degree Days  
Heating Degree Days 0 0  
Month to date heating degree days 0 0  
Since 1 July heating degree days 0 1  
Cooling Degree Days 10 4  
Month to date cooling degree days 65 47  
Year to date cooling degree days 1597 1165  
Growing Degree Days 26 (Base 50)    
Moisture  
Dew Point 43 °F    
Average Humidity 44    
Maximum Humidity 84    
Minimum Humidity 4    
Precipitation  
Precipitation 0.00 in 0.02 in 0.11 in (2013)
Month to date precipitation T 0.11  
Year to date precipitation 11.18 10.09  
Sea Level Pressure  
Sea Level Pressure 29.87 in    
Wind  
Wind Speed 7 mph (East)    
Max Wind Speed 25 mph    
Max Gust Speed 36 mph    
Visibility 9 miles    
Events      
T = Trace of Precipitation, MM = Missing Value Source: NWS Daily Summary

Daily Weather History Graph

Daily Weather History Graph

Search for Another Location

Airport or City:

Astronomy

Oct. 09, 2017 Rise Set
Actual Time 6:52 AM PDT 6:25 PM PDT
Civil Twilight 6:27 AM PDT 6:50 PM PDT
Nautical Twilight 5:58 AM PDT 7:18 PM PDT
Astronomical Twilight 5:29 AM PDT 7:47 PM PDT
Moon 9:48 PM PDT (10/9) 10:59 AM PDT (10/9)
Length of Visible Light 12h 22m
Length of Day
11h 32m
Waning Gibbous, 80% of the Moon is Illuminated
Oct 9
Waning Gibbous
Oct 12
Last Quarter
Oct 19
New
Oct 27
First Quarter
Nov 3
Full

Hourly Weather History & Observations

Time (PDT) Temp. Dew Point Humidity Pressure Visibility Wind Dir Wind Speed Gust Speed Precip Events Conditions
12:53 AM 66.9 °F 57.9 °F 73% 29.79 in 10.0 mi ESE 3.5 mph - N/A   Overcast
1:53 AM 66.9 °F 57.9 °F 73% 29.81 in 10.0 mi SSE 5.8 mph - N/A   Overcast
2:53 AM 66.9 °F 57.0 °F 70% 29.81 in 10.0 mi East 3.5 mph - N/A   Overcast
3:53 AM 66.9 °F 57.0 °F 70% 29.82 in 10.0 mi Calm Calm - N/A   Overcast
4:53 AM 66.0 °F 57.0 °F 73% 29.83 in 10.0 mi Calm Calm - N/A   Overcast
5:53 AM 63.0 °F 57.0 °F 81% 29.85 in 10.0 mi Calm Calm - N/A   Clear
6:53 AM 62.1 °F 57.0 °F 84% 29.86 in 9.0 mi Calm Calm - N/A   Clear
7:53 AM 64.9 °F 57.0 °F 75% 29.87 in 9.0 mi Calm Calm - N/A   Clear
8:53 AM 69.1 °F 57.9 °F 68% 29.90 in 9.0 mi Calm Calm - N/A   Clear
9:53 AM 72.0 °F 55.9 °F 57% 29.90 in 10.0 mi Variable 3.5 mph - N/A   Clear
10:53 AM 75.9 °F 52.0 °F 43% 29.89 in 10.0 mi Variable 4.6 mph - N/A   Clear
11:00 AM 77.0 °F 52.0 °F 42% 29.89 in 9.0 mi West 5.8 mph - N/A   Overcast
11:42 AM 82.4 °F 48.2 °F 30% 29.88 in 9.0 mi NW 4.6 mph - N/A   Scattered Clouds
11:53 AM 84.2 °F 42.8 °F 23% 29.88 in 10.0 mi Calm Calm - N/A   Scattered Clouds
12:53 PM 88.0 °F 7.0 °F 5% 29.88 in 5.0 mi East 24.2 mph 35.7 mph N/A   Haze
1:53 PM 89.1 °F 7.0 °F 5% 29.85 in 9.0 mi East 21.9 mph 29.9 mph N/A   Smoke
2:53 PM 87.8 °F 6.8 °F 5% 29.84 in 10.0 mi ENE 18.4 mph 24.2 mph N/A   Smoke
3:53 PM 87.8 °F 5.0 °F 4% 29.84 in 10.0 mi East 16.1 mph 23.0 mph N/A   Smoke
4:53 PM 86.0 °F 6.8 °F 5% 29.83 in 10.0 mi East 15.0 mph - N/A   Smoke
5:53 PM 84.9 °F 8.1 °F 5% 29.84 in 10.0 mi ENE 13.8 mph - N/A   Smoke
6:53 PM 81.0 °F 9.0 °F 6% 29.86 in 10.0 mi East 8.1 mph - N/A   Smoke
7:53 PM 75.0 °F 43.0 °F 32% 29.88 in 10.0 mi South 4.6 mph - N/A   Smoke
8:53 PM 70.0 °F 63.0 °F 78% 29.91 in 8.0 mi SE 5.8 mph - N/A   Smoke
9:53 PM 68.0 °F 62.1 °F 81% 29.92 in 9.0 mi Variable 4.6 mph - N/A   Smoke
10:53 PM 66.0 °F 61.0 °F 84% 29.93 in 9.0 mi Calm Calm - N/A   Smoke
11:53 PM 64.0 °F 61.0 °F 90% 29.93 in 9.0 mi Calm Calm - N/A   Smoke